DELTA 1 DEB, 19000

Orbit data source: Space-Track

DELTA 1 DEB, 19000 is space debris in SSO originally from a launch on Thu, 29 Jul 1976 UTC launched from the Air Force Western Test Range (AFWTR). Debris objects in space refer to the collection of defunct objects orbiting the Earth. Examples of debris include non-operational satellites, rocket bodies, and fragments generated from explosions, collisions, or faulty payload assembly.

Loading next visibility...
Identifier
19000, 1976-077FH
Orbit
SSO
Country
Flag of USUS
Related business
Manufacturer
Unknown
Mission
Spacecraft
Bus & Motor
Unknown
Mass
Unknown
Launch date (UTC)
1976-07-29 (50 years ago)
Launch vehicle
Unknown
Launch site
Air Force Western Test Range (AFWTR)
Object type
Payload
Rocket body
Debris
Shape & HBR
Unknown shape, 0.1 m
Radar Cross Section
Small (<0.1 m²)

Expand to show TLE details & history
Last TLE update: 14 hours ago

TLE from 14 hours ago
0 DELTA 1 DEB
1 19000U 76077FH  26033.45471745 -.00000051  00000-0 -43183-4 0  9999
2 19000 102.5930  21.8134 0078454 197.0093 319.1696 12.26758820710406
Epoch: 2026-02-02T10:54Z
TLE epoch observation values (Epoch: 2026-02-02T10:54:47.587Z)
Latitude
23.813°
Longitude
-88.90435°
Altitude
1,518.819 km
Speed
7.129 km/s
True Right ascension
13h 49m 46s
True Declination
23° 41' 54"
Sunlit
Object was in daylight at epoch
Visualization orbit readout
Latitude
Unknown
Longitude
Unknown
Altitude
Unknown
Speed
Unknown
Apparent Right ascension
Unknown
Apparent Declination
Unknown
Sunlit
N/A
Visualization observer readout
Local Sidereal Time
02:46:57
Azimuth
Unknown
Elevation
Unknown
Doppler factor
Unknown
Orbital elements
Apogee altitude
1,623.151 km
Perigee altitude
1,498.581 km
Semi-major axis
7,939.003 km
Eccentricity
0.00785
Inclination
102.593°
RAAN
21.8134°
Arg. of periapsis
197.0093°
True anomaly
318.57742°
Mean anomaly
319.1696°
Eccentric anomaly
318.87395°
Mean motion
3.06827 °/min
Orbital period
117.33 mins
BSTAR
-0.000043183
Loading maneuver chart data...
Computing Atmospheric mass density...
Loading historical data...
Loading historical data...
Loading historical data...
Loading historical data...
Loading historical data...
Loading historical data...
Loading historical data...

Documentation

Showing up to 5 results
|